This is the latest recevied weather packets stored in our database for station/object W0AKO. If no packets are shown the sender has not sent any weather packets the latest 10 day(s).
| Time | Temp. | Humidity | Pressure | Rain* | Wind** | Luminosity | Snow |
|---|---|---|---|---|---|---|---|
| 1777658072 | 22.78° C | 10% | 1018.2 hPa | 0 mm | - | 854 W/m² | - |
| 1777657769 | 23.33° C | 10% | 1018.4 hPa | 0 mm | - | 849 W/m² | - |
| 1777657467 | 22.78° C | 10% | 1018.7 hPa | 0 mm | - | 869 W/m² | - |
| 1777657164 | 23.33° C | 10% | 1018.3 hPa | 0 mm | - | 829 W/m² | - |
| 1777656862 | 23.33° C | 10% | 1018.5 hPa | 0 mm | - | 798 W/m² | - |
| 1777656557 | 22.78° C | 10% | 1018.3 hPa | 0 mm | - | 787 W/m² | - |
| 1777656253 | 22.78° C | 10% | 1018.3 hPa | 0 mm | - | 787 W/m² | - |
| 1777655948 | 22.22° C | 10% | 1018.5 hPa | 0 mm | - | 776 W/m² | - |
| 1777655644 | 22.22° C | 10% | 1018.7 hPa | 0 mm | - | 757 W/m² | - |
| 1777655341 | 22.22° C | 10% | 1018.7 hPa | 0 mm | - | 715 W/m² | - |
| 1777655038 | 22.22° C | 10% | 1018.7 hPa | 0 mm | - | 638 W/m² | - |
| 1777654736 | 21.67° C | 10% | 1018.8 hPa | 0 mm | - | 624 W/m² | - |
| 1777654434 | 21.67° C | 10% | 1018.8 hPa | 0 mm | - | 636 W/m² | - |
| 1777654131 | 21.67° C | 10% | 1018.5 hPa | 0 mm | - | 613 W/m² | - |
| 1777653829 | 21.11° C | 10% | 1018.7 hPa | 0 mm | - | 567 W/m² | - |
| 1777653525 | 21.11° C | 10% | 1018.7 hPa | 0 mm | - | 563 W/m² | - |
| 1777653221 | 21.11° C | 10% | 1018.9 hPa | 0 mm | - | 579 W/m² | - |
| 1777652918 | 20.56° C | 10% | 1018.5 hPa | 0 mm | - | 530 W/m² | - |
| 1777652615 | 20.56° C | 10% | 1018.8 hPa | 0 mm | - | 476 W/m² | - |
| 1777652312 | 20° C | 10% | 1018.8 hPa | 0 mm | - | 445 W/m² | - |
| 1777652009 | 20° C | 10% | 1018.8 hPa | 0 mm | - | 448 W/m² | - |
| 1777651705 | 20° C | 10% | 1018.8 hPa | 0 mm | - | 403 W/m² | - |
| 1777651402 | 20° C | 10% | 1018.5 hPa | 0 mm | - | 367 W/m² | - |
| 1777651100 | 20° C | 10% | 1018.3 hPa | 0 mm | - | 349 W/m² | - |
| 1777650796 | 20° C | 10% | 1018.5 hPa | 0 mm | - | 352 W/m² | - |
* Rain latest hour (hover to see other rain measurements)
** Current wind speed in m/s (hover to see current wind gust speed)